Location: Brahman Valley
(40.6513°N, 111.8855°W)
Time: 22:34:42
(UTC+00:00)

Vanguard 2 - Pass Details

Date: 21 May 2021
Orbit: 552 x 2937 km, 32.9° (Epoch: 14 June)

Event Time Altitude Azimuth Distance (km) Brightness Sun altitude
Rises 18:38:16 0° 264° (W) 5,950 12.0 67.5°
Reaches altitude 10° 18:46:47 10° 236° (WSW) 5,437 12.0 68.2°
Maximum altitude 18:50:53 11° 222° (SW) 5,480 12.2 68.5°
Drops below altitude 10° 18:55:10 10° 207° (SSW) 5,705 12.3 68.8°
Sets 19:05:13 0° 179° (S) 6,746 12.6 69.3°
